DAL179 PADK-RJCC

Flight info

Callsign DAL179
Flight time 5h 9m
Altitude 34000
Route CHIKI DCT CHIKI R451 POWAL DCT HIXOR M523 HARKI/N0465F360 M523 ISMAV NANNO OTR1 OBE V6 RAKNO MKE
Aircraft B738/M-SDE2E3FGHIRWXY/LB1

Departure

Time 2026-04-27 12:50
Airport Adak Airport (PADK)

Arrival

Time 2026-04-27 17:59
Airport New Chitose Airport (RJCC)
Time Latitude Longitude Altitude Speed Heading
2026-04-27 12:22 51.87401 -176.64566 14 ft 0 kts 184°
2026-04-27 12:44 51.87392 -176.64569 14 ft 3 kts 199°
2026-04-27 12:44 51.87389 -176.64597 10 ft 3 kts 291°
2026-04-27 12:44 51.87407 -176.64609 23 ft 3 kts 345°
2026-04-27 12:45 51.87434 -176.64620 10 ft 4 kts 346°
2026-04-27 12:45 51.87469 -176.64623 10 ft 6 kts 10°
2026-04-27 12:45 51.87524 -176.64598 12 ft 11 kts 18°
2026-04-27 12:45 51.87608 -176.64556 12 ft 14 kts 17°
2026-04-27 12:46 51.87714 -176.64498 12 ft 18 kts 18°
2026-04-27 12:46 51.87838 -176.64432 13 ft 20 kts 17°
2026-04-27 12:46 51.87959 -176.64373 13 ft 16 kts 16°
2026-04-27 12:46 51.88077 -176.64344 13 ft 19 kts
2026-04-27 12:47 51.88214 -176.64340 12 ft 20 kts
2026-04-27 12:47 51.88334 -176.64303 12 ft 20 kts 41°
2026-04-27 12:47 51.88412 -176.64102 12 ft 22 kts 60°
2026-04-27 12:47 51.88494 -176.63869 13 ft 25 kts 60°
2026-04-27 12:48 51.88585 -176.63612 12 ft 28 kts 60°
2026-04-27 12:48 51.88686 -176.63318 10 ft 32 kts 60°
2026-04-27 12:48 51.88796 -176.63001 10 ft 21 kts 60°
2026-04-27 12:48 51.88822 -176.62819 11 ft 10 kts 95°
2026-04-27 12:49 51.88842 -176.62765 12 ft 3 kts 341°
2026-04-27 12:49 51.88861 -176.62789 14 ft 3 kts 293°
2026-04-27 12:49 51.88855 -176.62829 13 ft 5 kts 246°
2026-04-27 12:49 51.88790 -176.63011 12 ft 48 kts 240°
2026-04-27 12:50 51.88518 -176.63792 14 ft 109 kts 240°
2026-04-27 12:50 51.88077 -176.65055 291 ft 136 kts 246°
2026-04-27 12:50 51.87630 -176.66459 980 ft 144 kts 251°
2026-04-27 12:50 51.87327 -176.67963 1899 ft 133 kts 264°
2026-04-27 12:51 51.87280 -176.69536 2385 ft 152 kts 278°
2026-04-27 12:51 51.87443 -176.71287 2877 ft 160 kts 279°
2026-04-27 12:51 51.87604 -176.73156 3262 ft 177 kts 278°
2026-04-27 12:51 51.87733 -176.75207 3728 ft 190 kts 277°
2026-04-27 12:52 51.87850 -176.77462 4136 ft 209 kts 276°
2026-04-27 12:52 51.87958 -176.79850 4837 ft 215 kts 276°
2026-04-27 12:52 51.88058 -176.82285 5659 ft 218 kts 276°
2026-04-27 12:52 51.88150 -176.84710 6408 ft 221 kts 276°
2026-04-27 12:53 51.88323 -176.89747 7899 ft 227 kts 275°
2026-04-27 12:53 51.88403 -176.92317 8651 ft 231 kts 275°
2026-04-27 12:53 51.88481 -176.94923 9417 ft 232 kts 275°
2026-04-27 12:54 51.88557 -176.97551 10109 ft 235 kts 275°
2026-04-27 12:54 51.88635 -177.00284 10422 ft 254 kts 275°
2026-04-27 12:54 51.88717 -177.03262 10589 ft 275 kts 274°
2026-04-27 12:54 51.88804 -177.06472 10738 ft 296 kts 274°
2026-04-27 12:55 51.88892 -177.09892 11062 ft 310 kts 274°
2026-04-27 12:55 51.88980 -177.13426 11494 ft 320 kts 274°
2026-04-27 12:55 51.89068 -177.17051 12105 ft 321 kts 274°
2026-04-27 12:55 51.89153 -177.20689 12750 ft 328 kts 274°
2026-04-27 12:56 51.89238 -177.24354 13516 ft 326 kts 274°
2026-04-27 12:56 51.89324 -177.28079 13981 ft 332 kts 274°
2026-04-27 12:56 51.89408 -177.31825 14679 ft 332 kts 274°
2026-04-27 12:56 51.89492 -177.35563 15333 ft 334 kts 274°
2026-04-27 12:57 51.89577 -177.39391 15611 ft 346 kts 274°
2026-04-27 12:57 51.89662 -177.43275 16322 ft 345 kts 274°
2026-04-27 12:57 51.89746 -177.47212 16601 ft 357 kts 273°
2026-04-27 12:57 51.89832 -177.51253 17202 ft 358 kts 274°
2026-04-27 12:58 51.89913 -177.55244 17953 ft 355 kts 274°
2026-04-27 12:58 51.89995 -177.59282 18383 ft 358 kts 275°
2026-04-27 12:58 51.90076 -177.63329 18885 ft 360 kts 275°
2026-04-27 12:58 51.90155 -177.67376 19433 ft 362 kts 274°
2026-04-27 12:59 51.90235 -177.71486 19858 ft 366 kts 274°
2026-04-27 12:59 51.90315 -177.75635 20147 ft 374 kts 274°
2026-04-27 12:59 51.90396 -177.79900 20420 ft 379 kts 274°
2026-04-27 12:59 51.90470 -177.84052 21281 ft 372 kts 274°
2026-04-27 13:00 51.90545 -177.88257 21823 ft 372 kts 274°
2026-04-27 13:00 51.90618 -177.92444 22285 ft 375 kts 274°
2026-04-27 13:00 51.90693 -177.96708 22459 ft 383 kts 274°
2026-04-27 13:00 51.90766 -178.01026 22891 ft 386 kts 274°
2026-04-27 13:01 51.90839 -178.05407 23070 ft 393 kts 273°
2026-04-27 13:01 51.90909 -178.09816 23625 ft 389 kts 274°
2026-04-27 13:01 51.90978 -178.14202 23987 ft 391 kts 274°
2026-04-27 13:01 51.91045 -178.18598 24480 ft 389 kts 274°
2026-04-27 13:02 51.91112 -178.23026 24615 ft 397 kts 274°
2026-04-27 13:02 51.91178 -178.27504 24905 ft 401 kts 273°
2026-04-27 13:02 51.91244 -178.32064 25029 ft 407 kts 274°
2026-04-27 13:02 51.91307 -178.36624 25585 ft 403 kts 274°
2026-04-27 13:03 51.91367 -178.41174 25980 ft 403 kts 274°
2026-04-27 13:03 51.91426 -178.45727 26316 ft 405 kts 274°
2026-04-27 13:03 51.91485 -178.50323 26515 ft 409 kts 274°
2026-04-27 13:03 51.91543 -178.54965 26544 ft 417 kts 273°
2026-04-27 13:04 51.91600 -178.59684 26810 ft 418 kts 274°
2026-04-27 13:04 51.91653 -178.64367 27345 ft 416 kts 274°
2026-04-27 13:04 51.91701 -178.68992 28168 ft 406 kts 274°
2026-04-27 13:04 51.91749 -178.73506 28479 ft 409 kts 274°
2026-04-27 13:05 51.91798 -178.78179 28745 ft 411 kts 274°
2026-04-27 13:05 51.91845 -178.82767 28908 ft 416 kts 274°
2026-04-27 13:05 51.91891 -178.87442 29334 ft 415 kts 274°
2026-04-27 13:05 51.91933 -178.92154 29820 ft 410 kts 275°
2026-04-27 13:06 51.91972 -178.96698 30163 ft 409 kts 274°
2026-04-27 13:06 51.92010 -179.01285 30549 ft 407 kts 273°
2026-04-27 13:06 51.92084 -179.10576 30848 ft 415 kts 273°
2026-04-27 13:07 51.92118 -179.15273 31034 ft 418 kts 274°
2026-04-27 13:07 51.92151 -179.19996 31164 ft 421 kts 273°
2026-04-27 13:07 51.92182 -179.24744 31428 ft 422 kts 273°
2026-04-27 13:07 51.92211 -179.29542 31414 ft 429 kts 273°
2026-04-27 13:08 51.92237 -179.34328 31912 ft 423 kts 273°
2026-04-27 13:08 51.92260 -179.39092 32320 ft 419 kts 273°
2026-04-27 13:08 51.92303 -179.48601 32792 ft 421 kts 272°
2026-04-27 13:09 51.92322 -179.53346 33002 ft 423 kts 272°
2026-04-27 13:09 51.92339 -179.58100 33249 ft 421 kts 272°
2026-04-27 13:09 51.92366 -179.67458 33371 ft 416 kts 272°
2026-04-27 13:10 51.92388 -179.76918 33398 ft 423 kts 272°
2026-04-27 13:10 51.92402 -179.86521 33399 ft 426 kts 272°
2026-04-27 13:11 51.92407 -179.96104 33375 ft 425 kts 271°
2026-04-27 13:11 51.92404 179.94326 33385 ft 424 kts 272°
2026-04-27 13:12 51.92393 179.84842 33404 ft 423 kts 273°
2026-04-27 13:12 51.92376 179.75298 33401 ft 424 kts 271°
2026-04-27 13:13 51.92351 179.65716 33421 ft 426 kts 272°
2026-04-27 13:13 51.92323 179.57739 33413 ft 426 kts 272°
2026-04-27 13:14 51.92283 179.48137 33414 ft 426 kts 272°
2026-04-27 13:14 51.92235 179.38571 33430 ft 422 kts 272°
2026-04-27 13:15 51.92180 179.29082 33424 ft 423 kts 272°
2026-04-27 13:15 51.92118 179.19541 33453 ft 424 kts 272°
2026-04-27 13:16 51.92047 179.10015 33451 ft 422 kts 271°
2026-04-27 13:16 51.91969 179.00489 33449 ft 423 kts 271°
2026-04-27 13:17 51.91883 178.90964 33449 ft 422 kts 271°
2026-04-27 13:17 51.91790 178.81457 33462 ft 423 kts 272°
2026-04-27 13:18 51.91688 178.71943 33487 ft 422 kts 272°
2026-04-27 13:18 51.91580 178.62434 33469 ft 423 kts 271°
2026-04-27 13:19 51.91464 178.52916 33473 ft 423 kts 271°
2026-04-27 13:19 51.91340 178.43417 33481 ft 422 kts 272°
2026-04-27 13:20 51.91208 178.33910 33505 ft 422 kts 271°
2026-04-27 13:20 51.91068 178.24395 33509 ft 423 kts 272°
2026-04-27 13:21 51.90922 178.14874 33500 ft 423 kts 270°
2026-04-27 13:21 51.90766 178.05345 33503 ft 424 kts 271°
2026-04-27 13:22 51.90603 177.95846 33515 ft 421 kts 271°
2026-04-27 13:22 51.90434 177.86336 33528 ft 424 kts 271°
2026-04-27 13:23 51.90255 177.76778 33540 ft 423 kts 271°
2026-04-27 13:23 51.90070 177.67269 33519 ft 424 kts 270°
2026-04-27 13:24 51.89876 177.57704 33553 ft 426 kts 271°
2026-04-27 13:24 51.89675 177.48231 33540 ft 421 kts 270°
2026-04-27 13:25 51.89467 177.38748 33575 ft 422 kts 270°
2026-04-27 13:25 51.89252 177.29245 33557 ft 421 kts 271°
2026-04-27 13:26 51.89031 177.19788 33560 ft 420 kts 270°
2026-04-27 13:26 51.88801 177.10297 33573 ft 424 kts 270°
2026-04-27 13:27 51.88467 177.00822 33568 ft 420 kts 269°
2026-04-27 13:27 51.88069 176.91380 33595 ft 423 kts 269°
2026-04-27 13:28 51.87666 176.81845 33604 ft 425 kts 268°
2026-04-27 13:28 51.87265 176.72293 33600 ft 425 kts 268°
2026-04-27 13:29 51.86859 176.62731 33619 ft 426 kts 268°
2026-04-27 13:29 51.86447 176.53210 33598 ft 421 kts 268°
2026-04-27 13:30 51.86032 176.43758 33614 ft 422 kts 268°
2026-04-27 13:30 51.85609 176.34287 33616 ft 423 kts 268°
2026-04-27 13:31 51.85177 176.24807 33618 ft 423 kts 268°
2026-04-27 13:31 51.84740 176.15384 33626 ft 424 kts 268°
2026-04-27 13:32 51.84291 176.05880 33635 ft 424 kts 268°
2026-04-27 13:32 51.83834 175.96380 33637 ft 423 kts 268°
2026-04-27 13:33 51.83371 175.86888 33664 ft 423 kts 268°
2026-04-27 13:33 51.82899 175.77402 33664 ft 422 kts 268°
2026-04-27 13:34 51.82423 175.67972 33662 ft 420 kts 267°
2026-04-27 13:34 51.81939 175.58525 33683 ft 422 kts 267°
2026-04-27 13:35 51.81446 175.49063 33679 ft 421 kts 267°
2026-04-27 13:35 51.80947 175.39629 33664 ft 423 kts 266°
2026-04-27 13:36 51.80437 175.30120 33676 ft 427 kts 267°
2026-04-27 13:36 51.79919 175.20633 33663 ft 419 kts 267°
2026-04-27 13:37 51.79401 175.11280 33667 ft 419 kts 266°
2026-04-27 13:37 51.78873 175.01843 33689 ft 424 kts 267°
2026-04-27 13:38 51.78340 174.92475 33688 ft 420 kts 266°
2026-04-27 13:38 51.77657 174.83111 33693 ft 421 kts 263°
2026-04-27 13:39 51.76704 174.73784 33688 ft 422 kts 263°
2026-04-27 13:39 51.75719 174.64439 33698 ft 422 kts 263°
2026-04-27 13:40 51.74748 174.55101 33708 ft 422 kts 262°
2026-04-27 13:40 51.73783 174.45757 33714 ft 422 kts 263°
2026-04-27 13:41 51.72814 174.36406 33736 ft 423 kts 263°
2026-04-27 13:41 51.71834 174.27052 33712 ft 423 kts 262°
2026-04-27 13:42 51.70843 174.17701 33717 ft 424 kts 262°
2026-04-27 13:42 51.69849 174.08341 33729 ft 424 kts 262°
2026-04-27 13:43 51.68852 173.99004 33730 ft 421 kts 262°
2026-04-27 13:43 51.67853 173.89732 33742 ft 420 kts 262°
2026-04-27 13:44 51.66843 173.80417 33732 ft 424 kts 262°
2026-04-27 13:44 51.65817 173.71039 33762 ft 426 kts 262°
2026-04-27 13:45 51.64792 173.61760 33736 ft 418 kts 261°
2026-04-27 13:45 51.63773 173.52594 33743 ft 420 kts 261°
2026-04-27 13:46 51.62735 173.43317 33772 ft 422 kts 262°
2026-04-27 13:46 51.61683 173.33996 33774 ft 424 kts 262°
2026-04-27 13:47 51.60625 173.24687 33772 ft 421 kts 262°
2026-04-27 13:47 51.59567 173.15456 33770 ft 419 kts 261°
2026-04-27 13:48 51.58506 173.06255 33779 ft 418 kts 261°
2026-04-27 13:48 51.57438 172.97063 33786 ft 418 kts 262°
2026-04-27 13:49 51.56366 172.87906 33796 ft 417 kts 261°
2026-04-27 13:49 51.55281 172.78698 33796 ft 422 kts 261°
2026-04-27 13:50 51.54175 172.69376 33789 ft 427 kts 261°
2026-04-27 13:50 51.53063 172.60092 33795 ft 419 kts 261°
2026-04-27 13:51 51.51957 172.50912 33811 ft 419 kts 261°
2026-04-27 13:51 51.50842 172.41715 33821 ft 420 kts 261°
2026-04-27 13:52 51.49718 172.32505 33826 ft 421 kts 261°
2026-04-27 13:52 51.48583 172.23273 33811 ft 422 kts 261°
2026-04-27 13:53 51.46865 172.09420 33825 ft 423 kts 261°
2026-04-27 13:54 51.45709 172.00176 33837 ft 423 kts 261°
2026-04-27 13:54 51.44552 171.90990 33839 ft 423 kts 261°
2026-04-27 13:55 51.43380 171.81745 33829 ft 423 kts 261°
2026-04-27 13:55 51.42195 171.72454 33846 ft 423 kts 261°
2026-04-27 13:56 51.41020 171.63292 33849 ft 423 kts 261°
2026-04-27 13:56 51.39825 171.54082 33862 ft 423 kts 260°
2026-04-27 13:57 51.38421 171.44940 33866 ft 422 kts 258°
2026-04-27 13:57 51.36919 171.35851 33846 ft 422 kts 258°
2026-04-27 13:58 51.35424 171.26754 33866 ft 423 kts 258°
2026-04-27 13:58 51.33937 171.17627 33873 ft 424 kts 258°
2026-04-27 13:59 51.32452 171.08503 33873 ft 424 kts 258°
2026-04-27 13:59 51.30960 170.99376 33882 ft 424 kts 258°
2026-04-27 14:00 51.29462 170.90262 33881 ft 424 kts 258°
2026-04-27 14:00 51.27955 170.81142 33888 ft 424 kts 258°
2026-04-27 14:01 51.26443 170.72041 33887 ft 424 kts 258°
2026-04-27 14:01 51.25181 170.64481 33888 ft 424 kts 258°
2026-04-27 14:02 51.23656 170.55392 33890 ft 424 kts 257°
2026-04-27 14:02 51.22126 170.46320 33896 ft 424 kts 257°
2026-04-27 14:03 51.20589 170.37258 33900 ft 423 kts 258°
2026-04-27 14:03 51.19048 170.28215 33894 ft 422 kts 258°
2026-04-27 14:04 51.17502 170.19193 33901 ft 422 kts 257°
2026-04-27 14:04 51.15953 170.10197 33904 ft 421 kts 257°
2026-04-27 14:05 51.14398 170.01213 33909 ft 420 kts 257°
2026-04-27 14:05 51.12839 169.92250 33909 ft 419 kts 257°
2026-04-27 14:06 51.11277 169.83316 33913 ft 419 kts 257°
2026-04-27 14:06 51.09709 169.74395 33916 ft 418 kts 257°
2026-04-27 14:07 51.08136 169.65490 33917 ft 418 kts 257°
2026-04-27 14:07 51.06558 169.56598 33917 ft 418 kts 257°
2026-04-27 14:08 51.04976 169.47726 33925 ft 417 kts 257°
2026-04-27 14:08 51.03388 169.38868 33921 ft 416 kts 257°
2026-04-27 14:09 51.01806 169.30086 33928 ft 416 kts 257°
2026-04-27 14:09 51.00210 169.21269 33935 ft 415 kts 257°
2026-04-27 14:10 50.98608 169.12461 33934 ft 415 kts 257°
2026-04-27 14:10 50.97001 169.03669 33929 ft 414 kts 257°
2026-04-27 14:11 50.95391 168.94898 33940 ft 414 kts 257°
2026-04-27 14:11 50.93777 168.86153 33948 ft 413 kts 257°
2026-04-27 14:12 50.92158 168.77418 33947 ft 413 kts 257°
2026-04-27 14:12 50.90533 168.68695 33949 ft 413 kts 257°
2026-04-27 14:13 50.88903 168.59984 33951 ft 412 kts 257°
2026-04-27 14:13 50.87270 168.51295 33945 ft 411 kts 257°
2026-04-27 14:14 50.85632 168.42626 33958 ft 411 kts 257°
2026-04-27 14:14 50.83992 168.33980 33959 ft 410 kts 257°
2026-04-27 14:15 50.82346 168.25343 33965 ft 410 kts 257°
2026-04-27 14:15 50.80694 168.16718 33952 ft 409 kts 257°
2026-04-27 14:16 50.79038 168.08113 33959 ft 409 kts 257°
2026-04-27 14:16 50.77379 167.99525 33962 ft 408 kts 257°
2026-04-27 14:17 50.75714 167.90947 33969 ft 408 kts 257°
2026-04-27 14:17 50.74055 167.82440 33963 ft 408 kts 257°
2026-04-27 14:18 50.72380 167.73888 33955 ft 408 kts 257°
2026-04-27 14:18 50.70699 167.65340 33957 ft 407 kts 257°
2026-04-27 14:19 50.69015 167.56816 33969 ft 407 kts 257°
2026-04-27 14:19 50.67324 167.48295 33969 ft 407 kts 257°
2026-04-27 14:20 50.65628 167.39787 33967 ft 407 kts 257°
2026-04-27 14:20 50.63926 167.31290 33942 ft 406 kts 257°
2026-04-27 14:21 50.62223 167.22822 33966 ft 405 kts 257°
2026-04-27 14:21 50.60519 167.14384 33980 ft 404 kts 257°
2026-04-27 14:22 50.58811 167.05962 33984 ft 403 kts 257°
2026-04-27 14:22 50.57099 166.97554 33983 ft 403 kts 257°
2026-04-27 14:23 50.55385 166.89174 33983 ft 402 kts 257°
2026-04-27 14:23 50.53666 166.80808 33980 ft 401 kts 257°
2026-04-27 14:24 50.51957 166.72523 33986 ft 401 kts 257°
2026-04-27 14:24 50.50232 166.64195 33986 ft 400 kts 257°
2026-04-27 14:25 50.48504 166.55883 33988 ft 400 kts 257°
2026-04-27 14:25 50.46772 166.47590 33991 ft 400 kts 257°
2026-04-27 14:26 50.45032 166.39296 33989 ft 400 kts 257°
2026-04-27 14:26 50.43288 166.31013 33992 ft 400 kts 257°
2026-04-27 14:27 50.41537 166.22734 33992 ft 400 kts 257°
2026-04-27 14:27 50.39780 166.14457 33990 ft 400 kts 257°
2026-04-27 14:28 50.38016 166.06181 33993 ft 401 kts 257°
2026-04-27 14:28 50.36246 165.97916 33990 ft 400 kts 257°
2026-04-27 14:29 50.34471 165.89655 33991 ft 400 kts 257°
2026-04-27 14:29 50.32694 165.81419 33992 ft 399 kts 257°
2026-04-27 14:30 50.30912 165.73198 33994 ft 399 kts 257°
2026-04-27 14:30 50.29124 165.64977 33998 ft 399 kts 257°
2026-04-27 14:31 50.27335 165.56782 33985 ft 398 kts 257°
2026-04-27 14:31 50.25541 165.48605 33992 ft 397 kts 257°
2026-04-27 14:32 50.23747 165.40454 33998 ft 396 kts 257°
2026-04-27 14:32 50.21953 165.32332 34005 ft 396 kts 257°
2026-04-27 14:33 50.20156 165.24221 34005 ft 395 kts 257°
2026-04-27 14:33 50.18354 165.16126 33977 ft 394 kts 257°
2026-04-27 14:34 50.17192 165.07912 34002 ft 384 kts 269°
2026-04-27 14:34 50.16754 164.99617 34016 ft 383 kts 269°
2026-04-27 14:35 50.16295 164.91335 34003 ft 383 kts 269°
2026-04-27 14:35 50.15820 164.83051 33999 ft 384 kts 269°
2026-04-27 14:36 50.15334 164.74763 34009 ft 384 kts 269°
2026-04-27 14:36 50.14841 164.66488 34002 ft 383 kts 269°
2026-04-27 14:37 50.14342 164.58213 34005 ft 383 kts 269°
2026-04-27 14:37 50.13841 164.50002 34006 ft 383 kts 269°
2026-04-27 14:38 50.13328 164.41685 34004 ft 383 kts 269°
2026-04-27 14:38 50.12816 164.33487 34008 ft 383 kts 269°
2026-04-27 14:39 50.12295 164.25234 33976 ft 382 kts 268°
2026-04-27 14:39 50.11768 164.17004 33998 ft 381 kts 268°
2026-04-27 14:40 50.11238 164.08791 34006 ft 381 kts 268°
2026-04-27 14:40 50.10702 164.00595 34010 ft 380 kts 268°
2026-04-27 14:41 50.10162 163.92413 34010 ft 379 kts 268°
2026-04-27 14:41 50.09616 163.84242 34017 ft 379 kts 268°
2026-04-27 14:42 50.09066 163.76090 34012 ft 378 kts 268°
2026-04-27 14:42 50.08512 163.67967 34016 ft 377 kts 268°
2026-04-27 14:43 50.07954 163.59868 34016 ft 376 kts 268°
2026-04-27 14:43 50.07392 163.51794 34015 ft 375 kts 268°
2026-04-27 14:44 50.06825 163.43723 34021 ft 374 kts 268°
2026-04-27 14:44 50.06253 163.35681 34017 ft 374 kts 268°
2026-04-27 14:45 50.05677 163.27652 34009 ft 373 kts 268°
2026-04-27 14:45 50.05097 163.19647 34020 ft 372 kts 268°
2026-04-27 14:46 50.04513 163.11658 34021 ft 371 kts 268°
2026-04-27 14:46 50.03928 163.03740 34021 ft 371 kts 268°
2026-04-27 14:47 50.03334 162.95771 34030 ft 371 kts 268°
2026-04-27 14:47 50.02735 162.87813 34003 ft 371 kts 268°
2026-04-27 14:48 50.02132 162.79864 34018 ft 370 kts 268°
2026-04-27 14:48 50.01217 162.67968 34032 ft 369 kts 268°
2026-04-27 14:49 50.00706 162.61385 34035 ft 369 kts 268°
2026-04-27 14:49 50.00087 162.53471 34036 ft 369 kts 268°
2026-04-27 14:50 49.99463 162.45569 34035 ft 368 kts 268°
2026-04-27 14:50 49.98833 162.37674 34031 ft 368 kts 267°
2026-04-27 14:51 49.98200 162.29796 34042 ft 367 kts 267°
2026-04-27 14:51 49.97562 162.21922 34043 ft 367 kts 267°
2026-04-27 14:52 49.96918 162.14046 34041 ft 367 kts 267°
2026-04-27 14:52 49.96268 162.06176 34045 ft 368 kts 267°
2026-04-27 14:53 49.95613 161.98300 34044 ft 368 kts 267°
2026-04-27 14:53 49.94952 161.90421 34041 ft 368 kts 267°
2026-04-27 14:54 49.94286 161.82537 34049 ft 368 kts 267°
2026-04-27 14:54 49.93613 161.74645 34047 ft 369 kts 266°
2026-04-27 14:55 49.92939 161.66812 34046 ft 369 kts 266°
2026-04-27 14:55 49.92250 161.58866 34047 ft 369 kts 266°
2026-04-27 14:56 49.91565 161.51024 34035 ft 369 kts 266°
2026-04-27 14:56 49.90871 161.43146 34045 ft 369 kts 266°
2026-04-27 14:57 49.90171 161.35268 34052 ft 368 kts 266°
2026-04-27 14:57 49.89468 161.27408 34054 ft 368 kts 266°
2026-04-27 14:58 49.88760 161.19552 34054 ft 368 kts 266°
2026-04-27 14:58 49.88046 161.11698 34059 ft 367 kts 266°
2026-04-27 14:59 49.87329 161.03869 34052 ft 366 kts 266°
2026-04-27 14:59 49.86610 160.96072 34062 ft 365 kts 266°
2026-04-27 15:00 49.85887 160.88285 34067 ft 365 kts 266°
2026-04-27 15:00 49.85044 160.80534 34066 ft 369 kts 259°
2026-04-27 15:01 49.83114 160.73096 34065 ft 377 kts 249°
2026-04-27 15:01 49.80199 160.66285 34068 ft 383 kts 243°
2026-04-27 15:02 49.77117 160.59496 34065 ft 382 kts 243°
2026-04-27 15:02 49.74092 160.52814 34074 ft 381 kts 243°
2026-04-27 15:03 49.71061 160.46102 34083 ft 380 kts 243°
2026-04-27 15:03 49.68036 160.39407 34088 ft 380 kts 243°
2026-04-27 15:04 49.65015 160.32732 34065 ft 379 kts 243°
2026-04-27 15:04 49.62002 160.26094 34082 ft 377 kts 243°
2026-04-27 15:05 49.58997 160.19489 34085 ft 376 kts 243°
2026-04-27 15:05 49.55996 160.12910 34090 ft 375 kts 243°
2026-04-27 15:06 49.53000 160.06355 34101 ft 374 kts 243°
2026-04-27 15:06 49.50006 159.99821 34097 ft 374 kts 243°
2026-04-27 15:07 49.47005 159.93288 34070 ft 374 kts 243°
2026-04-27 15:07 49.44009 159.86784 34093 ft 373 kts 243°
2026-04-27 15:08 49.41013 159.80293 34112 ft 372 kts 243°
2026-04-27 15:08 49.38016 159.73813 34111 ft 372 kts 243°
2026-04-27 15:09 49.35008 159.67348 34114 ft 373 kts 242°
2026-04-27 15:09 49.31901 159.60968 34120 ft 374 kts 242°
2026-04-27 15:10 49.28765 159.54626 34122 ft 373 kts 242°
2026-04-27 15:10 49.25617 159.48250 34361 ft 377 kts 242°
2026-04-27 15:11 49.24059 159.45096 34671 ft 375 kts 242°
2026-04-27 15:11 49.22482 159.41907 34882 ft 376 kts 241°
2026-04-27 15:11 49.20902 159.38708 35022 ft 379 kts 241°
2026-04-27 15:11 49.19312 159.35490 35181 ft 381 kts 241°
2026-04-27 15:12 49.17707 159.32246 35304 ft 383 kts 241°
2026-04-27 15:12 49.16094 159.28991 35468 ft 385 kts 241°
2026-04-27 15:12 49.14477 159.25734 35691 ft 385 kts 241°
2026-04-27 15:12 49.12859 159.22480 35868 ft 385 kts 240°
2026-04-27 15:13 49.11235 159.19219 36080 ft 385 kts 240°
2026-04-27 15:13 49.09611 159.15959 36122 ft 388 kts 240°
2026-04-27 15:13 49.06334 159.09391 36135 ft 388 kts 240°
2026-04-27 15:14 49.03070 159.02875 36134 ft 385 kts 240°
2026-04-27 15:14 48.99827 158.96413 36141 ft 382 kts 240°
2026-04-27 15:15 48.96604 158.90002 36146 ft 381 kts 240°
2026-04-27 15:15 48.93389 158.83620 36136 ft 380 kts 240°
2026-04-27 15:16 48.90173 158.77251 36146 ft 380 kts 240°
2026-04-27 15:16 48.86951 158.70885 36140 ft 380 kts 240°
2026-04-27 15:17 48.83716 158.64509 36145 ft 381 kts 240°
2026-04-27 15:17 48.80472 158.58131 36148 ft 383 kts 240°
2026-04-27 15:18 48.77233 158.51779 36140 ft 383 kts 240°
2026-04-27 15:18 48.73965 158.45386 36152 ft 384 kts 240°
2026-04-27 15:19 48.70687 158.38989 36162 ft 384 kts 240°
2026-04-27 15:19 48.67409 158.32606 36143 ft 384 kts 240°
2026-04-27 15:20 48.64126 158.26230 36144 ft 384 kts 240°
2026-04-27 15:20 48.60844 158.19871 36151 ft 383 kts 240°
2026-04-27 15:21 48.57567 158.13536 36153 ft 382 kts 240°
2026-04-27 15:21 48.54291 158.07218 36148 ft 382 kts 240°
2026-04-27 15:22 48.51018 158.00920 36120 ft 381 kts 240°
2026-04-27 15:22 48.47752 157.94652 36140 ft 380 kts 240°
2026-04-27 15:23 48.44496 157.88415 36141 ft 378 kts 240°
2026-04-27 15:23 48.41246 157.82206 36149 ft 377 kts 240°
2026-04-27 15:24 48.38002 157.76020 36152 ft 376 kts 240°
2026-04-27 15:24 48.34764 157.69861 36153 ft 375 kts 240°
2026-04-27 15:25 48.31525 157.63714 36154 ft 375 kts 240°
2026-04-27 15:25 48.28286 157.57579 36132 ft 375 kts 240°
2026-04-27 15:26 48.25046 157.51459 36139 ft 374 kts 240°
2026-04-27 15:26 48.21826 157.45389 36149 ft 374 kts 240°
2026-04-27 15:27 48.18585 157.39293 36153 ft 374 kts 240°
2026-04-27 15:27 48.15337 157.33196 36144 ft 374 kts 240°
2026-04-27 15:28 48.12086 157.27110 36149 ft 374 kts 240°
2026-04-27 15:28 48.08831 157.21032 36142 ft 374 kts 240°
2026-04-27 15:29 48.05581 157.14974 36151 ft 373 kts 240°
2026-04-27 15:29 48.02329 157.08926 36148 ft 373 kts 240°
2026-04-27 15:30 47.99076 157.02890 36148 ft 373 kts 240°
2026-04-27 15:30 47.95818 156.96859 36148 ft 373 kts 240°
2026-04-27 15:31 47.92562 156.90845 36143 ft 372 kts 240°
2026-04-27 15:31 47.89309 156.84851 36143 ft 371 kts 240°
2026-04-27 15:32 47.86081 156.78915 36146 ft 371 kts 240°
2026-04-27 15:32 47.82832 156.72953 36142 ft 370 kts 240°
2026-04-27 15:33 47.79584 156.67005 36154 ft 371 kts 240°
2026-04-27 15:33 47.76323 156.61045 36123 ft 371 kts 240°
2026-04-27 15:34 47.73069 156.55116 36130 ft 369 kts 240°
2026-04-27 15:34 47.69823 156.49214 36143 ft 369 kts 240°
2026-04-27 15:35 47.66578 156.43323 36137 ft 369 kts 240°
2026-04-27 15:35 47.63329 156.37438 36133 ft 368 kts 240°
2026-04-27 15:36 47.60082 156.31570 36107 ft 368 kts 240°
2026-04-27 15:36 47.56840 156.25724 36121 ft 367 kts 240°
2026-04-27 15:37 47.53604 156.19903 36133 ft 366 kts 240°
2026-04-27 15:37 47.50370 156.14095 36136 ft 366 kts 240°
2026-04-27 15:38 47.47678 156.09269 36127 ft 366 kts 240°
2026-04-27 15:38 47.43907 156.02526 36129 ft 366 kts 240°
2026-04-27 15:39 47.41196 155.97690 36119 ft 365 kts 240°
2026-04-27 15:39 47.37965 155.91936 36086 ft 363 kts 240°
2026-04-27 15:40 47.34766 155.86254 36119 ft 361 kts 240°
2026-04-27 15:40 47.31559 155.80565 36121 ft 361 kts 240°
2026-04-27 15:41 47.28353 155.74889 36122 ft 360 kts 240°
2026-04-27 15:41 47.25149 155.69230 36113 ft 359 kts 241°
2026-04-27 15:42 47.21948 155.63589 36125 ft 359 kts 241°
2026-04-27 15:42 47.18748 155.57960 36120 ft 359 kts 241°
2026-04-27 15:43 47.15546 155.52340 36117 ft 358 kts 241°
2026-04-27 15:43 47.12345 155.46733 36120 ft 358 kts 241°
2026-04-27 15:44 47.09138 155.41126 36089 ft 358 kts 241°
2026-04-27 15:44 47.05936 155.35542 36106 ft 358 kts 241°
2026-04-27 15:45 47.02734 155.29969 36115 ft 357 kts 241°
2026-04-27 15:45 46.99535 155.24411 36106 ft 356 kts 241°
2026-04-27 15:46 46.96335 155.18863 36114 ft 356 kts 241°
2026-04-27 15:46 46.93133 155.13322 36108 ft 357 kts 241°
2026-04-27 15:47 46.89927 155.07785 36110 ft 357 kts 241°
2026-04-27 15:47 46.86719 155.02257 36109 ft 357 kts 241°
2026-04-27 15:48 46.83525 154.96765 36109 ft 357 kts 241°
2026-04-27 15:49 46.78697 154.88482 36108 ft 357 kts 241°
2026-04-27 15:49 46.75472 154.82964 36082 ft 357 kts 241°
2026-04-27 15:50 46.72248 154.77460 36099 ft 357 kts 241°
2026-04-27 15:50 46.69027 154.71972 36108 ft 356 kts 240°
2026-04-27 15:51 46.65804 154.66491 36104 ft 356 kts 240°
2026-04-27 15:51 46.62581 154.61021 36077 ft 355 kts 241°
2026-04-27 15:52 46.59360 154.55565 36100 ft 355 kts 241°
2026-04-27 15:52 46.56144 154.50127 36095 ft 355 kts 240°
2026-04-27 15:53 46.52922 154.44690 36098 ft 355 kts 240°
2026-04-27 15:53 46.49694 154.39253 36111 ft 356 kts 240°
2026-04-27 15:54 46.46482 154.33855 36104 ft 356 kts 240°
2026-04-27 15:54 46.43219 154.28381 36102 ft 357 kts 240°
2026-04-27 15:55 46.39971 154.22944 36095 ft 357 kts 240°
2026-04-27 15:55 46.36719 154.17513 36103 ft 357 kts 240°
2026-04-27 15:56 46.33486 154.12123 36096 ft 357 kts 240°
2026-04-27 15:56 46.30228 154.06701 36092 ft 357 kts 240°
2026-04-27 15:57 46.26971 154.01292 36099 ft 357 kts 240°
2026-04-27 15:57 46.23709 153.95885 36083 ft 356 kts 240°
2026-04-27 15:58 46.20455 153.90504 36087 ft 356 kts 239°
2026-04-27 15:58 46.17202 153.85132 36096 ft 355 kts 239°
2026-04-27 15:59 46.13947 153.79769 36093 ft 355 kts 239°
2026-04-27 15:59 46.10691 153.74413 36094 ft 355 kts 239°
2026-04-27 16:00 46.07433 153.69066 36076 ft 355 kts 239°
2026-04-27 16:00 46.04178 153.63733 36085 ft 355 kts 239°
2026-04-27 16:01 46.00920 153.58406 36088 ft 354 kts 239°
2026-04-27 16:01 45.97660 153.53086 36088 ft 354 kts 239°
2026-04-27 16:02 45.94400 153.47773 36087 ft 355 kts 239°
2026-04-27 16:02 45.91134 153.42461 36062 ft 355 kts 239°
2026-04-27 16:03 45.87869 153.37166 36076 ft 353 kts 239°
2026-04-27 16:03 45.84593 153.31898 36086 ft 354 kts 238°
2026-04-27 16:04 45.81306 153.26654 36088 ft 354 kts 238°
2026-04-27 16:04 45.78013 153.21409 36084 ft 354 kts 238°
2026-04-27 16:05 45.74717 153.16165 36085 ft 354 kts 238°
2026-04-27 16:05 45.71419 153.10924 36079 ft 354 kts 238°
2026-04-27 16:06 45.68119 153.05690 36086 ft 355 kts 238°
2026-04-27 16:06 45.64832 153.00486 36082 ft 355 kts 238°
2026-04-27 16:07 45.61495 152.95213 36081 ft 356 kts 237°
2026-04-27 16:07 45.58175 152.89977 36082 ft 356 kts 237°
2026-04-27 16:08 45.54848 152.84739 36075 ft 356 kts 237°
2026-04-27 16:08 45.51517 152.79507 36063 ft 356 kts 237°
2026-04-27 16:09 45.48209 152.74321 36074 ft 356 kts 237°
2026-04-27 16:09 45.43211 152.66501 36081 ft 356 kts 237°
2026-04-27 16:10 45.36544 152.56106 36070 ft 355 kts 237°
2026-04-27 16:11 45.31555 152.48353 36072 ft 354 kts 237°
2026-04-27 16:12 45.26577 152.40639 36071 ft 353 kts 237°
2026-04-27 16:13 45.21608 152.32958 36074 ft 352 kts 237°
2026-04-27 16:13 45.16648 152.25313 36072 ft 351 kts 237°
2026-04-27 16:14 45.10061 152.15195 36071 ft 348 kts 237°
2026-04-27 16:15 45.03515 152.05176 36068 ft 345 kts 237°
2026-04-27 16:16 44.97033 151.95290 36075 ft 343 kts 237°
2026-04-27 16:17 44.90540 151.85421 36073 ft 341 kts 237°
2026-04-27 16:18 44.84109 151.75681 36073 ft 340 kts 236°
2026-04-27 16:19 44.80888 151.70816 36071 ft 339 kts 236°
2026-04-27 16:20 44.74457 151.61129 36070 ft 338 kts 236°
2026-04-27 16:21 44.69640 151.53894 36073 ft 338 kts 235°
2026-04-27 16:22 44.63221 151.44283 36064 ft 336 kts 235°
2026-04-27 16:22 44.58403 151.37089 36069 ft 338 kts 235°
2026-04-27 16:23 44.53550 151.29863 36071 ft 340 kts 234°
2026-04-27 16:24 44.50306 151.25044 36070 ft 340 kts 234°
2026-04-27 16:25 44.43831 151.15452 36068 ft 339 kts 234°
2026-04-27 16:26 44.37357 151.05893 36067 ft 338 kts 233°
2026-04-27 16:27 44.31420 150.97155 36064 ft 337 kts 233°
2026-04-27 16:28 44.23381 150.85366 36056 ft 336 kts 233°
2026-04-27 16:29 44.15330 150.73610 36065 ft 335 kts 232°
2026-04-27 16:30 44.08889 150.64240 36067 ft 335 kts 232°
2026-04-27 16:31 44.00824 150.52554 36058 ft 335 kts 232°
2026-04-27 16:32 43.95966 150.45537 36064 ft 337 kts 232°
2026-04-27 16:33 43.90975 150.38347 36051 ft 338 kts 231°
2026-04-27 16:33 43.87715 150.33660 36058 ft 338 kts 231°
2026-04-27 16:34 43.84446 150.28969 36060 ft 338 kts 231°
2026-04-27 16:34 43.81176 150.24284 36054 ft 338 kts 231°
2026-04-27 16:35 43.77904 150.19604 36054 ft 338 kts 231°
2026-04-27 16:36 43.72994 150.12597 36049 ft 338 kts 230°
2026-04-27 16:36 43.69722 150.07938 36050 ft 337 kts 230°
2026-04-27 16:37 43.66452 150.03287 36053 ft 337 kts 230°
2026-04-27 16:37 43.63179 149.98641 36051 ft 338 kts 230°
2026-04-27 16:38 43.59904 149.94000 36048 ft 338 kts 230°
2026-04-27 16:38 43.56622 149.89356 36051 ft 338 kts 230°
2026-04-27 16:39 43.53358 149.84745 36049 ft 338 kts 230°
2026-04-27 16:39 43.50065 149.80102 36050 ft 339 kts 230°
2026-04-27 16:40 43.46773 149.75468 36051 ft 339 kts 230°
2026-04-27 16:40 43.43476 149.70833 36048 ft 339 kts 230°
2026-04-27 16:41 43.40178 149.66204 36044 ft 339 kts 230°
2026-04-27 16:41 43.36875 149.61579 36045 ft 339 kts 230°
2026-04-27 16:42 43.33576 149.56964 36034 ft 338 kts 230°
2026-04-27 16:42 43.30277 149.52359 36042 ft 338 kts 230°
2026-04-27 16:43 43.26975 149.47755 36038 ft 338 kts 229°
2026-04-27 16:43 43.23668 149.43154 36032 ft 339 kts 229°
2026-04-27 16:44 43.20359 149.38556 36035 ft 339 kts 229°
2026-04-27 16:44 43.17045 149.33959 36031 ft 339 kts 229°
2026-04-27 16:45 43.13723 149.29360 36037 ft 340 kts 229°
2026-04-27 16:45 43.10397 149.24761 36038 ft 340 kts 229°
2026-04-27 16:46 43.07070 149.20169 36033 ft 340 kts 228°
2026-04-27 16:46 43.03735 149.15572 36037 ft 341 kts 228°
2026-04-27 16:47 43.00417 149.11009 36012 ft 341 kts 228°
2026-04-27 16:47 42.97073 149.06415 36026 ft 341 kts 228°
2026-04-27 16:48 42.93726 149.01825 36028 ft 341 kts 228°
2026-04-27 16:48 42.90371 148.97232 36026 ft 342 kts 228°
2026-04-27 16:49 42.85329 148.90344 36026 ft 342 kts 227°
2026-04-27 16:49 42.81962 148.85753 36024 ft 342 kts 227°
2026-04-27 16:50 42.78592 148.81166 36023 ft 343 kts 227°
2026-04-27 16:50 42.75221 148.76584 36018 ft 342 kts 227°
2026-04-27 16:51 42.71850 148.72010 36020 ft 342 kts 227°
2026-04-27 16:51 42.68477 148.67441 36019 ft 342 kts 227°
2026-04-27 16:52 42.65104 148.62879 36017 ft 342 kts 227°
2026-04-27 16:52 42.61731 148.58326 36014 ft 342 kts 227°
2026-04-27 16:53 42.58354 148.53773 36016 ft 342 kts 227°
2026-04-27 16:53 42.54980 148.49232 36011 ft 342 kts 226°
2026-04-27 16:54 42.51602 148.44694 36008 ft 342 kts 226°
2026-04-27 16:54 42.48224 148.40161 36008 ft 342 kts 226°
2026-04-27 16:55 42.44843 148.35632 35998 ft 342 kts 226°
2026-04-27 16:55 42.41482 148.31138 36005 ft 342 kts 226°
2026-04-27 16:56 42.38096 148.26617 36001 ft 342 kts 226°
2026-04-27 16:56 42.34705 148.22096 36004 ft 343 kts 226°
2026-04-27 16:57 42.31308 148.17576 35968 ft 343 kts 226°
2026-04-27 16:57 42.27905 148.13054 35995 ft 343 kts 226°
2026-04-27 16:58 42.24494 148.08528 35992 ft 344 kts 226°
2026-04-27 16:58 42.21071 148.03994 35996 ft 345 kts 226°
2026-04-27 16:59 42.17637 147.99452 35998 ft 346 kts 226°
2026-04-27 16:59 42.14192 147.94901 35996 ft 347 kts 226°
2026-04-27 17:00 42.09113 147.87946 35981 ft 348 kts 233°
2026-04-27 17:01 42.06702 147.82281 35983 ft 351 kts 241°
2026-04-27 17:01 42.05231 147.75978 35995 ft 357 kts 251°
2026-04-27 17:02 42.04281 147.69464 35987 ft 357 kts 252°
2026-04-27 17:02 42.03331 147.62928 35983 ft 355 kts 252°
2026-04-27 17:03 42.02526 147.57471 35972 ft 354 kts 252°
2026-04-27 17:03 42.01402 147.49937 35981 ft 353 kts 251°
2026-04-27 17:04 42.00431 147.43481 35982 ft 352 kts 251°
2026-04-27 17:04 41.99458 147.37038 35977 ft 351 kts 251°
2026-04-27 17:05 41.98482 147.30604 35965 ft 351 kts 251°
2026-04-27 17:05 41.97669 147.25260 35975 ft 351 kts 251°
2026-04-27 17:06 41.96687 147.18828 35978 ft 352 kts 251°
2026-04-27 17:06 41.95698 147.12380 35971 ft 353 kts 251°
2026-04-27 17:07 41.94703 147.05913 35972 ft 354 kts 251°
2026-04-27 17:07 41.93702 146.99426 35961 ft 355 kts 251°
2026-04-27 17:08 41.92694 146.92925 35985 ft 356 kts 250°
2026-04-27 17:08 41.92390 146.86153 35964 ft 372 kts 263°
2026-04-27 17:09 41.93167 146.79251 35953 ft 381 kts 274°
2026-04-27 17:09 41.94799 146.72475 35961 ft 381 kts 275°
2026-04-27 17:10 41.96455 146.65770 35959 ft 380 kts 275°
2026-04-27 17:10 41.98101 146.59024 35956 ft 380 kts 275°
2026-04-27 17:11 41.99730 146.52271 35956 ft 380 kts 275°
2026-04-27 17:11 42.02160 146.42128 35944 ft 381 kts 275°
2026-04-27 17:12 42.04592 146.31927 35953 ft 383 kts 275°
2026-04-27 17:13 42.06216 146.25090 35953 ft 385 kts 275°
2026-04-27 17:13 42.07846 146.18211 35947 ft 386 kts 275°
2026-04-27 17:14 42.09479 146.11300 35952 ft 388 kts 275°
2026-04-27 17:14 42.11115 146.04356 35940 ft 389 kts 275°
2026-04-27 17:15 42.12748 145.97405 35942 ft 389 kts 275°
2026-04-27 17:15 42.14376 145.90454 35939 ft 389 kts 275°
2026-04-27 17:16 42.15999 145.83503 35936 ft 388 kts 275°
2026-04-27 17:16 42.17614 145.76559 35951 ft 388 kts 275°
2026-04-27 17:17 42.19225 145.69610 35937 ft 388 kts 275°
2026-04-27 17:17 42.20831 145.62663 35931 ft 388 kts 275°
2026-04-27 17:18 42.23233 145.52234 35931 ft 388 kts 275°
2026-04-27 17:18 42.24826 145.45288 35929 ft 388 kts 275°
2026-04-27 17:19 42.26407 145.38373 35932 ft 388 kts 274°
2026-04-27 17:19 42.28003 145.31369 35926 ft 388 kts 274°
2026-04-27 17:20 42.29574 145.24457 35925 ft 387 kts 274°
2026-04-27 17:20 42.31150 145.17501 35914 ft 387 kts 274°
2026-04-27 17:21 42.32719 145.10548 35919 ft 387 kts 274°
2026-04-27 17:21 42.34286 145.03585 35924 ft 388 kts 274°
2026-04-27 17:22 42.35849 144.96614 35922 ft 387 kts 274°
2026-04-27 17:22 42.37407 144.89650 35914 ft 387 kts 274°
2026-04-27 17:23 42.38958 144.82691 35913 ft 386 kts 274°
2026-04-27 17:23 42.40506 144.75728 35912 ft 386 kts 274°
2026-04-27 17:24 42.42045 144.68776 35933 ft 386 kts 274°
2026-04-27 17:24 42.43581 144.61818 35918 ft 386 kts 274°
2026-04-27 17:25 42.45112 144.54857 35905 ft 386 kts 274°
2026-04-27 17:25 42.46640 144.47892 35903 ft 386 kts 274°
2026-04-27 17:26 42.48163 144.40922 35905 ft 386 kts 274°
2026-04-27 17:26 42.49685 144.33939 35909 ft 387 kts 274°
2026-04-27 17:27 42.51205 144.26939 35911 ft 387 kts 274°
2026-04-27 17:27 42.52712 144.19974 35896 ft 388 kts 274°
2026-04-27 17:28 42.53472 144.16450 35598 ft 390 kts 274°
2026-04-27 17:28 42.54230 144.12947 35271 ft 384 kts 274°
2026-04-27 17:28 42.55717 144.06070 34500 ft 377 kts 274°
2026-04-27 17:29 42.56448 144.02671 34099 ft 374 kts 274°
2026-04-27 17:29 42.57170 143.99295 33670 ft 372 kts 275°
2026-04-27 17:29 42.57886 143.95944 33260 ft 369 kts 275°
2026-04-27 17:29 42.58598 143.92607 32845 ft 367 kts 275°
2026-04-27 17:30 42.59303 143.89299 32438 ft 364 kts 275°
2026-04-27 17:30 42.60698 143.82735 31645 ft 359 kts 275°
2026-04-27 17:30 42.61387 143.79486 31253 ft 357 kts 275°
2026-04-27 17:31 42.62071 143.76252 30864 ft 355 kts 276°
2026-04-27 17:31 42.62752 143.73029 30462 ft 354 kts 276°
2026-04-27 17:31 42.63428 143.69823 30073 ft 353 kts 276°
2026-04-27 17:31 42.64102 143.66629 29671 ft 350 kts 276°
2026-04-27 17:32 42.64769 143.63459 29241 ft 348 kts 276°
2026-04-27 17:32 42.66089 143.57182 28450 ft 343 kts 276°
2026-04-27 17:32 42.66740 143.54076 28040 ft 341 kts 276°
2026-04-27 17:33 42.67386 143.50986 27640 ft 339 kts 276°
2026-04-27 17:33 42.68028 143.47911 27225 ft 337 kts 276°
2026-04-27 17:33 42.68665 143.44855 26839 ft 335 kts 276°
2026-04-27 17:33 42.69297 143.41817 26436 ft 334 kts 277°
2026-04-27 17:34 42.69927 143.38788 26027 ft 332 kts 277°
2026-04-27 17:34 42.70553 143.35771 25639 ft 331 kts 277°
2026-04-27 17:34 42.71178 143.32755 25244 ft 331 kts 277°
2026-04-27 17:34 42.71795 143.29776 24867 ft 331 kts 277°
2026-04-27 17:35 42.72425 143.26731 24499 ft 330 kts 277°
2026-04-27 17:35 42.73030 143.23765 24115 ft 329 kts 275°
2026-04-27 17:35 42.73387 143.20730 23679 ft 323 kts 266°
2026-04-27 17:35 42.73384 143.17684 23211 ft 322 kts 262°
2026-04-27 17:36 42.73324 143.14642 22748 ft 321 kts 262°
2026-04-27 17:36 42.73261 143.11612 22371 ft 319 kts 263°
2026-04-27 17:36 42.73201 143.08605 21998 ft 317 kts 263°
2026-04-27 17:36 42.73143 143.05621 21636 ft 315 kts 263°
2026-04-27 17:37 42.73087 143.02652 21277 ft 313 kts 264°
2026-04-27 17:37 42.73033 142.99704 20925 ft 311 kts 264°
2026-04-27 17:37 42.72980 142.96774 20568 ft 309 kts 264°
2026-04-27 17:37 42.72926 142.93859 20223 ft 308 kts 265°
2026-04-27 17:38 42.72873 142.90955 19879 ft 306 kts 265°
2026-04-27 17:38 42.72820 142.88061 19533 ft 306 kts 265°
2026-04-27 17:38 42.72765 142.85166 19169 ft 306 kts 266°
2026-04-27 17:38 42.72709 142.82277 18792 ft 306 kts 266°
2026-04-27 17:39 42.72654 142.79397 18458 ft 304 kts 266°
2026-04-27 17:39 42.72598 142.76519 18069 ft 305 kts 267°
2026-04-27 17:39 42.72541 142.73638 17693 ft 304 kts 267°
2026-04-27 17:39 42.72485 142.70768 17317 ft 303 kts 267°
2026-04-27 17:40 42.72427 142.67911 16937 ft 301 kts 267°
2026-04-27 17:40 42.72369 142.65069 16602 ft 300 kts 267°
2026-04-27 17:40 42.72311 142.62239 16241 ft 299 kts 267°
2026-04-27 17:40 42.72252 142.59411 15894 ft 299 kts 267°
2026-04-27 17:41 42.72193 142.56581 15530 ft 299 kts 267°
2026-04-27 17:41 42.72132 142.53760 15170 ft 298 kts 267°
2026-04-27 17:41 42.72072 142.50953 14818 ft 296 kts 267°
2026-04-27 17:41 42.71962 142.48164 14462 ft 295 kts 261°
2026-04-27 17:42 42.71382 142.45498 14153 ft 294 kts 248°
2026-04-27 17:42 42.70597 142.42989 13894 ft 290 kts 246°
2026-04-27 17:42 42.69793 142.40494 13675 ft 286 kts 246°
2026-04-27 17:42 42.69002 142.38045 13502 ft 280 kts 246°
2026-04-27 17:43 42.68233 142.35649 13233 ft 273 kts 246°
2026-04-27 17:43 42.67479 142.33286 12710 ft 273 kts 246°
2026-04-27 17:43 42.66726 142.30920 12195 ft 273 kts 246°
2026-04-27 17:43 42.65996 142.28619 11793 ft 268 kts 246°
2026-04-27 17:44 42.65262 142.26305 11332 ft 267 kts 247°
2026-04-27 17:44 42.64529 142.23990 10843 ft 267 kts 247°
2026-04-27 17:44 42.63797 142.21681 10379 ft 265 kts 246°
2026-04-27 17:44 42.63070 142.19389 9923 ft 264 kts 246°
2026-04-27 17:45 42.62346 142.17107 9448 ft 263 kts 246°
2026-04-27 17:45 42.61632 142.14855 9182 ft 254 kts 246°
2026-04-27 17:45 42.60951 142.12709 9036 ft 243 kts 246°
2026-04-27 17:45 42.60289 142.10626 8894 ft 239 kts 246°
2026-04-27 17:46 42.59633 142.08563 8816 ft 239 kts 246°
2026-04-27 17:46 42.58967 142.06470 8701 ft 246 kts 246°
2026-04-27 17:46 42.58270 142.04280 8582 ft 257 kts 246°
2026-04-27 17:46 42.57557 142.02046 8491 ft 257 kts 246°
2026-04-27 17:47 42.56858 141.99858 8371 ft 249 kts 246°
2026-04-27 17:47 42.56370 141.98460 8246 ft 246 kts 238°
2026-04-27 17:47 42.54646 141.96577 8062 ft 240 kts 202°
2026-04-27 17:47 42.53011 141.96151 7887 ft 245 kts 181°
2026-04-27 17:48 42.51288 141.96397 7663 ft 254 kts 174°
2026-04-27 17:48 42.49511 141.96802 7397 ft 263 kts 173°
2026-04-27 17:48 42.47693 141.97218 7111 ft 265 kts 173°
2026-04-27 17:48 42.45877 141.97619 6830 ft 264 kts 173°
2026-04-27 17:49 42.44061 141.98009 6552 ft 264 kts 173°
2026-04-27 17:49 42.42251 141.98390 6278 ft 263 kts 175°
2026-04-27 17:49 42.40465 141.98191 5965 ft 258 kts 204°
2026-04-27 17:49 42.39036 141.96813 5702 ft 253 kts 231°
2026-04-27 17:50 42.38172 141.94767 5427 ft 251 kts 252°
2026-04-27 17:50 42.37531 141.90141 4894 ft 250 kts 261°
2026-04-27 17:50 42.37262 141.87822 4603 ft 250 kts 260°
2026-04-27 17:51 42.36983 141.85507 4320 ft 249 kts 259°
2026-04-27 17:51 42.36702 141.83236 4046 ft 248 kts 259°
2026-04-27 17:51 42.36452 141.80935 3777 ft 248 kts 267°
2026-04-27 17:51 42.36809 141.78671 3517 ft 249 kts 296°
2026-04-27 17:52 42.37907 141.76871 3275 ft 250 kts 322°
2026-04-27 17:52 42.39441 141.75841 3177 ft 245 kts 344°
2026-04-27 17:52 42.41101 141.75437 3066 ft 240 kts 351°
2026-04-27 17:52 42.42209 141.75246 2982 ft 235 kts 352°
2026-04-27 17:53 42.44323 141.74903 2834 ft 227 kts 352°
2026-04-27 17:53 42.45864 141.74637 2737 ft 220 kts 352°
2026-04-27 17:53 42.47362 141.74366 2609 ft 217 kts 351°
2026-04-27 17:53 42.48871 141.74088 2408 ft 220 kts 352°
2026-04-27 17:54 42.50388 141.73808 2186 ft 221 kts 352°
2026-04-27 17:54 42.51902 141.73541 2061 ft 219 kts 353°
2026-04-27 17:54 42.53427 141.73274 2049 ft 222 kts 353°
2026-04-27 17:54 42.54442 141.73101 2044 ft 222 kts 354°
2026-04-27 17:55 42.55974 141.72847 2033 ft 221 kts 353°
2026-04-27 17:55 42.57489 141.72586 2022 ft 218 kts 353°
2026-04-27 17:55 42.58992 141.72321 2023 ft 215 kts 353°
2026-04-27 17:55 42.60431 141.72065 2031 ft 203 kts 353°
2026-04-27 17:56 42.61830 141.71818 1888 ft 205 kts 352°
2026-04-27 17:56 42.63234 141.71569 1864 ft 202 kts 353°
2026-04-27 17:56 42.64621 141.71324 1866 ft 197 kts 353°
2026-04-27 17:56 42.65943 141.71090 1853 ft 187 kts 353°
2026-04-27 17:57 42.67233 141.70862 1853 ft 185 kts 353°
2026-04-27 17:57 42.68495 141.70639 1620 ft 177 kts 353°
2026-04-27 17:57 42.69670 141.70431 1415 ft 165 kts 354°
2026-04-27 17:57 42.70787 141.70233 1164 ft 159 kts 353°
2026-04-27 17:58 42.71876 141.70042 954 ft 158 kts 352°
2026-04-27 17:58 42.72959 141.69850 746 ft 157 kts 352°
2026-04-27 17:58 42.74036 141.69663 510 ft 153 kts 351°
2026-04-27 17:58 42.75114 141.69469 326 ft 158 kts 353°
2026-04-27 17:59 42.76207 141.69270 126 ft 157 kts 352°
2026-04-27 17:59 42.77236 141.69081 69 ft 138 kts 352°
2026-04-27 17:59 42.78066 141.68940 85 ft 103 kts 352°
2026-04-27 17:59 42.78426 141.68840 85 ft 23 kts 290°
2026-04-27 18:00 42.78420 141.68695 86 ft 12 kts 261°
2026-04-27 18:00 42.78409 141.68586 84 ft 10 kts 263°
2026-04-27 18:00 42.78429 141.68482 85 ft 13 kts 292°
2026-04-27 18:00 42.78473 141.68387 86 ft 11 kts 307°
2026-04-27 18:01 42.78547 141.68352 88 ft 10 kts 15°
2026-04-27 18:01 42.78616 141.68383 87 ft 12 kts 18°
2026-04-27 18:01 42.78692 141.68407 89 ft 9 kts
2026-04-27 18:01 42.78728 141.68336 87 ft 11 kts 274°
2026-04-27 18:02 42.78731 141.68266 86 ft 3 kts 272°
2026-04-27 18:02 42.78731 141.68265 86 ft 0 kts 272°